{"data":{"norad_id":64957,"epoch":"2026-05-25T04:55:24.362112Z","epoch_age_seconds":64213,"freshness":"FRESH","line1":"1 64957U 25159B   26145.20514308  .00000061  00000+0  10706-3 0  9997","line2":"2 64957  86.4944 290.2508 0001999  92.3554 267.7809 13.24405916 40086","mean_motion":13.24405916,"eccentricity":0.0001999,"inclination_deg":86.4944,"raan_deg":290.2508,"arg_perigee_deg":92.3554,"mean_anomaly_deg":267.7809,"bstar":0.00010706,"rev_number":4008,"period_min":108.72799514133,"perigee_km":1166.4292382071,"apogee_km":1169.4461588716,"semimajor_km":7546.0746985394,"source":"CELESTRAK","updated_at":"2026-05-25T13:38:04.941159Z"}}